LEMUR-2-EJATTA (44409 NORAD) Tracking and Keplerian Element Data

This shows tracking and keplerian element data for the satellite.

Feedback or suggestion? Click here.




ElementValue
Catalog44409
NameLEMUR-2-EJATTA
Epoch Orbit430
Epoch Day214.95764819
Epoch Year2019
RAAN176.3505
Inclination97.488
Eccentricity0.0025723
Argument of Perigee143.5445
Mean Anonmoly216.7544
Mean Motion15.11934623
Decay Rate9.21E-06
L11 44409U 19038Z 19214.95764819 .00000921 00000-0 57128-4 0 9997
L22 44409 97.4880 176.3505 0025723 143.5445 216.7544 15.11934623 4302

Live tracking and technical data element details for LEMUR-2-EJATTA (NORAD 44409). LEMUR-2-EJATTA can be tracked NOW for your location showing map with azimuth and elevation plus other details from your city location.

Track the satellite on the map from your city or location and see movement details for azimuth, elevation, latitude, longitude, range, height, and movement on the map or in text.







IsCatalogInMostPopularTable: catalog: 44409, numindb: 15
Update: records affected: 1



GetName: 44409 LEMUR-2-EJATTA

Hit Count: updated at: Tue, 22 Oct 2019 23:30:57 GMT